Location: Holmbach
(49.5093°N, 8.8411°E)
Time: 20:41:10
(UTC+00:00)

Cosmos 540 Rocket - Pass Details

Date: 17 June 2025
Orbit: 736 x 747 km, 74.1° (Epoch: 16 July)

Event Time Altitude Azimuth Distance (km) Brightness Sun altitude
Rises 22:31:40 0° 332° (NNW) 3,193 8.3 -16.1°
Reaches altitude 10° 22:34:05 10° 327° (NNW) 2,263 7.1 -16.2°
Maximum altitude 22:39:01 50° 254° (WSW) 946 3.9 -16.3°
Enters shadow 22:41:38 26° 192° (SSW) 1,443 4.4 -16.4°
